Tracking 19634 objects as of 21-May-2019
HD Live streaming from Space Station
objects crossing your sky now

YURI 2A (BS-2A)

Track YURI 2A (BS-2A) now!
YURI 2A (BS-2A) is classified as:


NORAD ID: 14659
Int'l Code: 1984-005A
Perigee: 36,094.2 km
Apogee: 36,186.3 km
Inclination: 14.6 °
Period: 1,453.8 minutes
Semi major axis: 42511 km
RCS: 5.0178 m2 (large)
Launch date: January 23, 1984
Source: Japan (JPN)
Launch site: TANEGASHIMA SPACE CENTER (TNSTA)
aabbcc
Your satellite tracking list
Your tracking list is empty




NASA's NSSDC Master Catalog

Two Line Element Set (TLE):
1 14659U 84005A   19140.10118796 +.00000024 +00000-0 +00000-0 0  9996
2 14659 014.5969 345.5442 0010835 160.6435 200.9222 00.99048240092712
Source of the keplerian elements: AFSPC